Location: Stanford
(52.2833°N, 2.4333°W)
Time: 18:09:24
(UTC+00:00)

Cosmos 1602 Rocket - Pass Details

Date: 22 January 2021
Orbit: 604 x 632 km, 82.5° (Epoch: 26 February)

Event Time Altitude Azimuth Distance (km) Brightness Sun altitude
Rises 19:00:55 0° 186° (S) 2,856 7.1 -21.3°
Reaches altitude 10° 19:03:07 10° 186° (S) 1,960 6.2 -21.6°
Maximum altitude 19:07:27 83° 100° (E) 625 3.4 -22.3°
Enters shadow 19:08:47 45° 17° (NNE) 850 4.0 -22.5°
